This is the latest recevied weather packets stored in our database for station/object DO1TOB-60. If no packets are shown the sender has not sent any weather packets the latest 1 day(s).
| Time | Temp. | Humidity | Pressure | Rain* | Wind** | Luminosity | Snow |
|---|---|---|---|---|---|---|---|
| 1777994928 | 13.89° C | 92% | 1008.2 hPa | 0 mm | 2.24 m/s, 342° | - | - |
| 1777994857 | 13.89° C | 92% | 1008.2 hPa | 0 mm | 4.02 m/s, 336° | - | - |
| 1777994798 | 13.89° C | 92% | 1008.2 hPa | 0 mm | 2.68 m/s, 346° | - | - |
| 1777994738 | 13.89° C | 92% | 1008.2 hPa | 0 mm | 3.58 m/s, 345° | - | - |
| 1777994677 | 13.89° C | 92% | 1008.2 hPa | 0 mm | 4.02 m/s, 340° | - | - |
| 1777994617 | 13.89° C | 92% | 1008.2 hPa | 0 mm | 2.24 m/s, 340° | - | - |
| 1777994558 | 13.89° C | 92% | 1008.3 hPa | 0 mm | 4.02 m/s, 336° | - | - |
| 1777994497 | 13.89° C | 92% | 1008.3 hPa | 0 mm | 3.13 m/s, 325° | - | - |
| 1777994427 | 13.89° C | 92% | 1008.3 hPa | 0 mm | 2.68 m/s, 332° | - | - |
| 1777994368 | 13.89° C | 92% | 1008.3 hPa | 0 mm | 3.13 m/s, 333° | - | - |
| 1777994308 | 13.89° C | 92% | 1008.3 hPa | 0 mm | 2.68 m/s, 335° | - | - |
| 1777994248 | 13.89° C | 92% | 1008.3 hPa | 0 mm | 3.13 m/s, 337° | - | - |
| 1777994187 | 13.89° C | 92% | 1008.3 hPa | 0 mm | 2.68 m/s, 334° | - | - |
| 1777994127 | 13.89° C | 92% | 1008.3 hPa | 0 mm | 2.24 m/s, 335° | - | - |
| 1777994071 | 13.89° C | 92% | 1008.3 hPa | 0 mm | 2.68 m/s, 329° | - | - |
| 1777993997 | 13.89° C | 92% | 1008.3 hPa | 0 mm | 1.34 m/s, 336° | - | - |
| 1777993937 | 13.89° C | 92% | 1008.3 hPa | 0 mm | 2.68 m/s, 347° | - | - |
| 1777993877 | 13.89° C | 92% | 1008.3 hPa | 0 mm | 2.24 m/s, 325° | - | - |
| 1777993818 | 13.89° C | 92% | 1008.3 hPa | 0 mm | 3.58 m/s, 326° | - | - |
| 1777993757 | 13.89° C | 91% | 1008.3 hPa | 0 mm | 3.58 m/s, 332° | - | - |
| 1777993697 | 13.89° C | 91% | 1008.3 hPa | 0 mm | 2.68 m/s, 334° | - | - |
| 1777993627 | 13.89° C | 91% | 1008.3 hPa | 0 mm | 2.24 m/s, 345° | - | - |
| 1777993568 | 13.89° C | 92% | 1008.3 hPa | 0 mm | 3.13 m/s, 331° | - | - |
| 1777993507 | 13.89° C | 92% | 1008.3 hPa | 0 mm | 2.68 m/s, 349° | - | - |
| 1777993447 | 13.89° C | 92% | 1008.3 hPa | 0 mm | 3.13 m/s, 313° | - | - |
* Rain latest hour (hover to see other rain measurements)
** Current wind speed in m/s (hover to see current wind gust speed)